Time,TemperatureF,DewpointF,PressureIn,WindDirection,WindDirectionDegrees,WindSpeedMPH,WindSpeedGustMPH,Humidity,HourlyPrecipIn,Conditions,Clouds,dailyrainin,SoftwareType,DateUTC
2013-01-11 00:12:00,32.1,31.0,29.73,SE,133,5.0,10.0,96,0.00,,,0.00,weatherlink.com 1.10,2013-01-11 06:12:00,
2013-01-11 00:27:00,32.1,31.0,29.72,South,171,3.0,9.0,96,0.01,,,0.01,weatherlink.com 1.10,2013-01-11 06:27:00,
2013-01-11 00:42:00,32.1,31.0,29.71,SSE,157,5.0,10.0,96,0.02,,,0.02,weatherlink.com 1.10,2013-01-11 06:42:00,
2013-01-11 00:57:00,32.0,31.0,29.71,SSE,153,3.0,10.0,96,0.02,,,0.02,weatherlink.com 1.10,2013-01-11 06:57:00,
2013-01-11 01:12:00,31.9,31.0,29.70,SSE,167,5.0,8.0,96,0.02,,,0.02,weatherlink.com 1.10,2013-01-11 07:12:00,
2013-01-11 01:27:00,31.9,31.0,29.69,South,170,3.0,8.0,96,0.01,,,0.02,weatherlink.com 1.10,2013-01-11 07:27:00,
2013-01-11 01:42:00,31.9,31.0,29.69,SSE,161,3.0,9.0,97,0.00,,,0.02,weatherlink.com 1.10,2013-01-11 07:42:00,
2013-01-11 01:57:00,32.0,31.0,29.68,SSE,149,2.0,8.0,97,0.00,,,0.02,weatherlink.com 1.10,2013-01-11 07:57:00,
2013-01-11 02:12:00,32.0,31.0,29.69,ESE,111,5.0,8.0,97,0.00,,,0.02,weatherlink.com 1.10,2013-01-11 08:12:00,
2013-01-11 02:27:00,32.0,31.0,29.67,ESE,111,4.0,9.0,97,0.00,,,0.02,weatherlink.com 1.10,2013-01-11 08:27:00,
2013-01-11 02:42:00,32.1,31.0,29.67,ESE,111,4.0,9.0,97,0.00,,,0.02,weatherlink.com 1.10,2013-01-11 08:42:00,
2013-01-11 02:58:00,32.1,31.0,29.66,ESE,111,4.0,5.0,97,0.00,,,0.02,weatherlink.com 1.10,2013-01-11 08:58:00,
2013-01-11 03:12:00,32.1,31.0,29.66,ESE,111,3.0,5.0,97,0.00,,,0.02,weatherlink.com 1.10,2013-01-11 09:12:00,
2013-01-11 03:27:00,32.1,31.0,29.66,ESE,111,5.0,7.0,97,0.00,,,0.02,weatherlink.com 1.10,2013-01-11 09:27:00,
2013-01-11 03:42:00,32.1,31.0,29.66,ESE,111,2.0,4.0,96,0.00,,,0.02,weatherlink.com 1.10,2013-01-11 09:42:00,
2013-01-11 03:57:00,32.2,31.0,29.64,ESE,111,2.0,4.0,96,0.01,,,0.03,weatherlink.com 1.10,2013-01-11 09:57:00,
2013-01-11 04:12:00,32.1,31.0,29.64,ESE,111,2.0,3.0,97,0.01,,,0.03,weatherlink.com 1.10,2013-01-11 10:12:00,
2013-01-11 04:27:00,32.1,31.0,29.63,ESE,111,2.0,4.0,97,0.03,,,0.05,weatherlink.com 1.10,2013-01-11 10:27:00,
2013-01-11 04:42:00,32.1,31.0,29.62,ESE,111,2.0,3.0,97,0.04,,,0.06,weatherlink.com 1.10,2013-01-11 10:42:00,
2013-01-11 04:57:00,32.1,31.0,29.62,ESE,111,1.0,2.0,97,0.05,,,0.08,weatherlink.com 1.10,2013-01-11 10:57:00,
2013-01-11 05:27:00,32.0,31.0,29.61,ESE,111,0.0,3.0,97,0.08,,,0.13,weatherlink.com 1.10,2013-01-11 11:27:00,
2013-01-11 05:42:00,32.0,31.0,29.61,ESE,111,2.0,3.0,97,0.10,,,0.16,weatherlink.com 1.10,2013-01-11 11:42:00,
2013-01-11 06:12:00,32.0,32.0,29.60,ESE,111,0.0,2.0,98,0.09,,,0.20,weatherlink.com 1.10,2013-01-11 12:12:00,
2013-01-11 06:27:00,32.0,32.0,29.59,ESE,111,0.0,1.0,98,0.09,,,0.22,weatherlink.com 1.10,2013-01-11 12:27:00,
2013-01-11 06:42:00,32.0,31.0,29.59,ESE,111,0.0,1.0,97,0.08,,,0.24,weatherlink.com 1.10,2013-01-11 12:42:00,
2013-01-11 06:57:00,32.0,32.0,29.59,ESE,111,1.0,1.0,98,0.09,,,0.27,weatherlink.com 1.10,2013-01-11 12:57:00,
2013-01-11 07:12:00,32.0,32.0,29.60,ESE,111,1.0,2.0,98,0.08,,,0.28,weatherlink.com 1.10,2013-01-11 13:12:00,
2013-01-11 07:27:00,32.0,32.0,29.59,ESE,111,0.0,2.0,98,0.08,,,0.30,weatherlink.com 1.10,2013-01-11 13:27:00,
2013-01-11 07:42:00,32.0,32.0,29.59,ESE,111,1.0,2.0,98,0.06,,,0.30,weatherlink.com 1.10,2013-01-11 13:42:00,
2013-01-11 07:57:00,32.0,32.0,29.59,ESE,111,1.0,2.0,98,0.04,,,0.31,weatherlink.com 1.10,2013-01-11 13:57:00,
2013-01-11 08:12:00,32.0,32.0,29.59,ESE,111,0.0,1.0,98,0.04,,,0.32,weatherlink.com 1.10,2013-01-11 14:12:00,
2013-01-11 08:27:00,32.0,32.0,29.59,ESE,111,0.0,1.0,98,0.03,,,0.33,weatherlink.com 1.10,2013-01-11 14:27:00,
2013-01-11 08:42:00,32.0,32.0,29.58,ESE,111,0.0,2.0,98,0.05,,,0.35,weatherlink.com 1.10,2013-01-11 14:42:00,
2013-01-11 08:58:00,32.1,32.0,29.58,ESE,111,0.0,1.0,98,0.05,,,0.36,weatherlink.com 1.10,2013-01-11 14:58:00,
2013-01-11 09:13:00,32.1,32.0,29.58,ESE,111,0.0,1.0,98,0.06,,,0.38,weatherlink.com 1.10,2013-01-11 15:13:00,
2013-01-11 09:28:00,32.1,32.0,29.58,ESE,111,2.0,2.0,98,0.05,,,0.38,weatherlink.com 1.10,2013-01-11 15:28:00,
2013-01-11 09:43:00,32.2,32.0,29.58,ESE,111,1.0,2.0,98,0.04,,,0.39,weatherlink.com 1.10,2013-01-11 15:43:00,
2013-01-11 09:58:00,32.3,32.0,29.58,ESE,111,0.0,3.0,98,0.03,,,0.39,weatherlink.com 1.10,2013-01-11 15:58:00,
2013-01-11 10:13:00,32.3,32.0,29.58,ESE,111,0.0,2.0,98,0.02,,,0.40,weatherlink.com 1.10,2013-01-11 16:13:00,
2013-01-11 10:28:00,32.3,32.0,29.57,ESE,111,1.0,2.0,98,0.03,,,0.41,weatherlink.com 1.10,2013-01-11 16:28:00,
2013-01-11 10:43:00,32.5,32.0,29.56,East,90,1.0,5.0,98,0.03,,,0.42,weatherlink.com 1.10,2013-01-11 16:43:00,
2013-01-11 10:58:00,32.5,32.0,29.57,SSE,153,0.0,3.0,98,0.04,,,0.43,weatherlink.com 1.10,2013-01-11 16:58:00,
2013-01-11 11:13:00,32.5,32.0,29.57,SSE,152,1.0,2.0,98,0.04,,,0.44,weatherlink.com 1.10,2013-01-11 17:13:00,
2013-01-11 11:28:00,32.5,32.0,29.55,SSE,152,2.0,3.0,98,0.03,,,0.44,weatherlink.com 1.10,2013-01-11 17:28:00,
2013-01-11 11:43:00,32.5,32.0,29.54,South,169,0.0,3.0,98,0.03,,,0.45,weatherlink.com 1.10,2013-01-11 17:43:00,
2013-01-11 11:58:00,32.5,32.0,29.53,SE,130,2.0,3.0,98,0.03,,,0.46,weatherlink.com 1.10,2013-01-11 17:58:00,
2013-01-11 12:13:00,32.5,32.0,29.53,SSE,153,1.0,3.0,98,0.02,,,0.46,weatherlink.com 1.10,2013-01-11 18:13:00,
2013-01-11 12:28:00,32.4,32.0,29.53,SSE,153,0.0,2.0,98,0.04,,,0.48,weatherlink.com 1.10,2013-01-11 18:28:00,
2013-01-11 12:43:00,32.6,32.0,29.53,SSE,153,1.0,1.0,98,0.06,,,0.51,weatherlink.com 1.10,2013-01-11 18:43:00,
2013-01-11 12:58:00,32.6,32.0,29.52,SSE,158,1.0,3.0,98,0.06,,,0.52,weatherlink.com 1.10,2013-01-11 18:58:00,
2013-01-11 13:13:00,32.6,32.0,29.50,East,92,0.0,3.0,98,0.08,,,0.54,weatherlink.com 1.10,2013-01-11 19:13:00,
2013-01-11 13:28:00,32.7,32.0,29.51,ESE,105,1.0,2.0,98,0.10,,,0.58,weatherlink.com 1.10,2013-01-11 19:28:00,
2013-01-11 13:43:00,33.1,33.0,29.51,ESE,105,1.0,2.0,98,0.08,,,0.59,weatherlink.com 1.10,2013-01-11 19:43:00,
2013-01-11 13:58:00,33.0,33.0,29.52,SE,129,2.0,4.0,98,0.07,,,0.59,weatherlink.com 1.10,2013-01-11 19:58:00,
2013-01-11 14:13:00,33.0,33.0,29.51,SE,135,1.0,4.0,98,0.06,,,0.60,weatherlink.com 1.10,2013-01-11 20:13:00,
2013-01-11 14:28:00,33.2,33.0,29.52,SE,135,0.0,1.0,98,0.02,,,0.60,weatherlink.com 1.10,2013-01-11 20:28:00,
2013-01-11 14:43:00,33.3,33.0,29.51,SE,135,0.0,1.0,98,0.01,,,0.60,weatherlink.com 1.10,2013-01-11 20:43:00,
2013-01-11 14:58:00,33.4,33.0,29.50,SE,135,1.0,2.0,98,0.01,,,0.60,weatherlink.com 1.10,2013-01-11 20:58:00,
2013-01-11 15:13:00,33.5,33.0,29.50,SE,135,0.0,1.0,98,0.00,,,0.60,weatherlink.com 1.10,2013-01-11 21:13:00,
2013-01-11 15:28:00,33.4,33.0,29.50,SE,135,0.0,1.0,98,0.01,,,0.61,weatherlink.com 1.10,2013-01-11 21:28:00,
2013-01-11 15:43:00,33.5,33.0,29.49,ESE,108,1.0,2.0,98,0.01,,,0.61,weatherlink.com 1.10,2013-01-11 21:43:00,
2013-01-11 15:58:00,33.5,33.0,29.48,NE,55,1.0,2.0,98,0.01,,,0.61,weatherlink.com 1.10,2013-01-11 21:58:00,
2013-01-11 16:13:00,33.5,33.0,29.49,NE,55,1.0,2.0,98,0.01,,,0.61,weatherlink.com 1.10,2013-01-11 22:13:00,
2013-01-11 16:28:00,33.4,33.0,29.49,NE,55,0.0,3.0,98,0.00,,,0.61,weatherlink.com 1.10,2013-01-11 22:28:00,
2013-01-11 16:43:00,33.4,33.0,29.49,SE,128,2.0,3.0,98,0.01,,,0.62,weatherlink.com 1.10,2013-01-11 22:43:00,
2013-01-11 16:58:00,33.7,34.0,29.48,SE,133,1.0,3.0,99,0.01,,,0.62,weatherlink.com 1.10,2013-01-11 22:58:00,
2013-01-11 17:13:00,33.7,34.0,29.49,SE,133,1.0,3.0,99,0.01,,,0.62,weatherlink.com 1.10,2013-01-11 23:13:00,
2013-01-11 17:28:00,33.7,34.0,29.47,SE,133,1.0,2.0,99,0.00,,,0.62,weatherlink.com 1.10,2013-01-11 23:28:00,
2013-01-11 17:43:00,33.7,34.0,29.47,ESE,112,0.0,2.0,99,0.00,,,0.62,weatherlink.com 1.10,2013-01-11 23:43:00,
2013-01-11 17:58:00,33.7,34.0,29.46,ESE,112,0.0,2.0,99,0.00,,,0.62,weatherlink.com 1.10,2013-01-11 23:58:00,
2013-01-11 18:13:00,33.6,33.0,29.44,NNE,22,1.0,3.0,99,0.01,,,0.63,weatherlink.com 1.10,2013-01-12 00:13:00,
2013-01-11 18:28:00,33.6,33.0,29.45,NE,41,0.0,3.0,99,0.01,,,0.63,weatherlink.com 1.10,2013-01-12 00:28:00,
2013-01-11 18:44:00,33.5,33.0,29.44,NE,55,2.0,3.0,99,0.01,,,0.63,weatherlink.com 1.10,2013-01-12 00:44:00,
2013-01-11 18:59:00,33.6,33.0,29.44,NE,55,1.0,3.0,99,0.01,,,0.63,weatherlink.com 1.10,2013-01-12 00:59:00,
2013-01-11 19:14:00,33.5,33.0,29.45,NE,55,1.0,1.0,99,0.01,,,0.64,weatherlink.com 1.10,2013-01-12 01:14:00,
2013-01-11 19:29:00,33.5,33.0,29.43,NE,55,0.0,1.0,99,0.01,,,0.64,weatherlink.com 1.10,2013-01-12 01:29:00,
2013-01-11 19:44:00,33.5,33.0,29.43,NE,55,0.0,1.0,99,0.01,,,0.64,weatherlink.com 1.10,2013-01-12 01:44:00,
2013-01-11 19:59:00,33.7,34.0,29.43,ENE,69,1.0,2.0,99,0.01,,,0.65,weatherlink.com 1.10,2013-01-12 01:59:00,
2013-01-11 20:14:00,33.9,34.0,29.42,ESE,110,1.0,3.0,99,0.01,,,0.65,weatherlink.com 1.10,2013-01-12 02:14:00,
2013-01-11 20:29:00,34.0,34.0,29.41,ESE,110,0.0,2.0,99,0.02,,,0.66,weatherlink.com 1.10,2013-01-12 02:29:00,
2013-01-11 20:44:00,33.9,34.0,29.41,ESE,110,1.0,1.0,99,0.03,,,0.67,weatherlink.com 1.10,2013-01-12 02:44:00,
2013-01-11 20:59:00,33.9,34.0,29.41,ESE,110,1.0,2.0,99,0.02,,,0.67,weatherlink.com 1.10,2013-01-12 02:59:00,
2013-01-11 21:14:00,33.9,34.0,29.41,SSE,151,0.0,4.0,99,0.03,,,0.68,weatherlink.com 1.10,2013-01-12 03:14:00,
2013-01-11 21:29:00,33.8,34.0,29.41,SSE,150,1.0,3.0,99,0.02,,,0.68,weatherlink.com 1.10,2013-01-12 03:29:00,
2013-01-11 21:44:00,33.7,34.0,29.41,SSE,150,2.0,3.0,99,0.02,,,0.69,weatherlink.com 1.10,2013-01-12 03:44:00,
2013-01-11 21:59:00,33.4,33.0,29.40,SSE,150,0.0,1.0,99,0.03,,,0.70,weatherlink.com 1.10,2013-01-12 03:59:00,
2013-01-11 22:14:00,33.2,33.0,29.39,SSE,150,0.0,0.0,99,0.02,,,0.70,weatherlink.com 1.10,2013-01-12 04:14:00,
2013-01-11 22:29:00,32.9,33.0,29.39,SSE,150,0.0,0.0,99,0.03,,,0.71,weatherlink.com 1.10,2013-01-12 04:29:00,
2013-01-11 22:44:00,32.8,33.0,29.38,SSE,150,0.0,0.0,99,0.02,,,0.71,weatherlink.com 1.10,2013-01-12 04:44:00,
2013-01-11 22:59:00,32.6,32.0,29.37,SSE,150,0.0,0.0,99,0.02,,,0.72,weatherlink.com 1.10,2013-01-12 04:59:00,
2013-01-11 23:14:00,32.5,32.0,29.36,SSE,150,0.0,0.0,99,0.02,,,0.72,weatherlink.com 1.10,2013-01-12 05:14:00,
2013-01-11 23:29:00,32.5,32.0,29.36,SSE,150,0.0,0.0,99,0.01,,,0.72,weatherlink.com 1.10,2013-01-12 05:29:00,
2013-01-11 23:44:00,32.4,32.0,29.36,SSE,150,0.0,0.0,99,0.01,,,0.72,weatherlink.com 1.10,2013-01-12 05:44:00,
2013-01-11 23:59:00,32.4,32.0,29.36,SSE,150,0.0,0.0,99,0.00,,,0.72,weatherlink.com 1.10,2013-01-12 05:59:00,